This is the latest recevied weather packets stored in our database for station/object KE8URB. If no packets are shown the sender has not sent any weather packets the latest 10 day(s).
| Time | Temp. | Humidity | Pressure | Rain* | Wind** | Luminosity | Snow |
|---|---|---|---|---|---|---|---|
| 1787848678 | 24.44° C | 85% | 1015.7 hPa | 0 mm | - | 76 W/m² | - |
| 1787848373 | 23.89° C | 87% | 1015.7 hPa | 0 mm | - | 158 W/m² | - |
| 1787848073 | 23.89° C | 87% | 1016 hPa | 0 mm | - | 114 W/m² | - |
| 1787847772 | 23.33° C | 88% | 1015.9 hPa | 0 mm | - | 75 W/m² | - |
| 1787847468 | 23.33° C | 88% | 1015.9 hPa | 0 mm | - | 59 W/m² | - |
| 1787847163 | 23.33° C | 88% | 1016.1 hPa | 0 mm | - | 87 W/m² | - |
| 1787846860 | 23.33° C | 88% | 1016.2 hPa | 0 mm | - | 125 W/m² | - |
| 1787846559 | 23.33° C | 88% | 1016 hPa | 0 mm | - | 111 W/m² | - |
| 1787846255 | 23.33° C | 87% | 1015.7 hPa | 0 mm | - | 85 W/m² | - |
| 1787845951 | 23.33° C | 88% | 1016.1 hPa | 0 mm | - | 81 W/m² | - |
| 1787845647 | 22.78° C | 90% | 1015.9 hPa | 0 mm | - | 77 W/m² | - |
| 1787845346 | 23.33° C | 88% | 1015.9 hPa | 0 mm | - | 87 W/m² | - |
| 1787845042 | 23.33° C | 88% | 1015.9 hPa | 0 mm | - | 86 W/m² | - |
| 1787844737 | 23.33° C | 89% | 1015.7 hPa | 0 mm | - | 102 W/m² | - |
| 1787844436 | 23.33° C | 88% | 1016 hPa | 0 mm | - | 78 W/m² | - |
| 1787844132 | 23.33° C | 88% | 1015.9 hPa | 0 mm | - | 245 W/m² | - |
| 1787843827 | 22.78° C | 88% | 1015.8 hPa | 0 mm | - | 159 W/m² | - |
| 1787843526 | 22.78° C | 88% | 1016 hPa | 0 mm | - | 105 W/m² | - |
| 1787843224 | 22.78° C | 88% | 1016 hPa | 0 mm | - | 63 W/m² | - |
| 1787842923 | 22.78° C | 87% | 1016 hPa | 0 mm | - | 114 W/m² | - |
| 1787842618 | 22.78° C | 88% | 1015.8 hPa | 0 mm | - | 137 W/m² | - |
| 1787842318 | 22.78° C | 87% | 1015.7 hPa | 0 mm | - | 138 W/m² | - |
| 1787842013 | 22.78° C | 89% | 1015.7 hPa | 0 mm | - | 114 W/m² | - |
| 1787841709 | 22.22° C | 89% | 1015.8 hPa | 0 mm | - | 97 W/m² | - |
| 1787841408 | 22.22° C | 88% | 1015.7 hPa | 0 mm | - | 81 W/m² | - |
* Rain latest hour (hover to see other rain measurements)
** Current wind speed in m/s (hover to see current wind gust speed)